www.pogodaiklimat.ru

Погода и климат >> Архив погоды >> Россия >> Магаданская область >> Мыс Алевина


ПОГОДА на Мысе Алевина

  • Прогноз погоды на Мысе Алевина
  • Монитор погоды на Мысе Алевина
  • Климат города

АРХИВ ПОГОДЫ на Мысе Алевина

Время (UTC), дата Ветер
(напр.,м/с)
 
Видим.   Явления Облачность Т
(С)
Тd
(С)
f
(%)
Тe
(С)
Тes
(С)
Комфортность P
(гПа)
Po
(гПа)
Тmin
(С)
Tmax
(С)
R
(мм)
R24
(мм)
S
(см)
06 17.06 ЮВ 2 500 м туман ?/? +3.7 +3.6 99 +1 +1 1015.5 1007.4
09 17.06 штиль 0 200 м туман ?/? +3.4 +3.4 100 +2 +2 1015.7 1007.6 +6.6
12 17.06 СЗ 1 200 м туман ?/? +3.7 +3.7 100 +2 +2 1016.0 1007.9
15 17.06 штиль 0 200 м туман ?/? +3.6 +3.6 100 +2 +2 1015.7 1007.6
18 17.06 СЗ 3 200 м сильная пыльная буря {туман} ясно +3.9 +3.9 100 -0 0 1015.5 1007.4
21 17.06 З 5 500 м туман ?/? +4.3 +4.3 100 -1 -1 1015.7 1007.6 +3.1
00 18.06 З 6 500 м туман ?/? +4.2 +4.2 100 -2 -2 1015.7 1007.6
03 18.06 З 7 500 м туман ?/? +4.7 +4.1 96 -1 -1 1015.3 1007.2
06 18.06 СЗ 7
{10}
500 м туман ?/? +4.5 +3.8 95 -1 -1 1015.0 1006.9
09 18.06 СЗ 7
{10}
500 м туман ?/? +3.6 +3.3 98 -3 -3 1015.2 1007.1 +5.4
12 18.06 СЗ 8
{10}
1000 м туман местами 10/10 300 м
[St]
+3.1 +2.8 98 -4 -4 1015.9 1007.8
15 18.06 СЗ 8
{10}
4000 м туман местами 10/10 300 м
[St]
+2.6 +2.5 99 -4 -4 1015.5 1007.4
18 18.06 СЗ 10-12
{12}
4000 м туман местами 10/10 300 м
[St]
+3.1 +2.7 97 -4 -4 1015.0 1006.9
21 18.06 СЗ 9-11
{14}
50 км 10/10 300 м
[St]
+3.9 +3.1 95 -3 -3 1014.9 1006.8 +2.5
00 19.06 СЗ 8-10
{11}
10 км туман местами 10/10 300 м
[St]
+4.3 +3.7 96 -2 -2 1015.2 1007.1
03 19.06 З 8-10
{11}
10 км туман местами 10/10 300 м
[St]
+4.7 +3.8 94 -1 -1 1015.7 1007.6
06 19.06 СЗ 10-12
{13}
50 км 10/10 300 м
[St]
+5.9 +4.2 89 -0 -0 1015.0 1007.0
09 19.06 СЗ 9-11
{12}
10 км туман местами 10/10 300 м
[St]
+4.3 +4.0 98 -2 -2 1015.8 1007.7 +6.2
12 19.06 СЗ 8-10
{12}
500 м туман ?/? +3.4 +3.4 100 -3 -3 1016.6 1008.5
15 19.06 З 8
{10}
<100 м слабая морось {туман} ?/? +2.9 +2.9 100 -4 -4 1016.6 1008.5
18 19.06 СЗ 6 <100 м туман {морось} ?/? +2.8 +2.8 100 -3 -3 1016.6 1008.5
21 19.06 З 4 500 м туман ?/? +3.7 +3.7 100 -1 -1 1017.3 1009.2 +2.6 0.0
00 20.06 СЗ 1 500 м туман ?/? +5.2 +5.2 100 +4 +4 1016.9 1008.8
03 20.06 Ю 2 500 м туман ?/? +4.4 +4.4 100 +1 +1 1016.9 1008.8
06 20.06 ЮВ 3 500 м туман ?/? +4.4 +4.2 99 +1 +1 1016.8 1008.7
09 20.06 В 4 20 км туман местами 10/10 1000 м
[]
+4.2 +3.6 96 -0 -0 1016.2 1008.1
12 20.06 В 7 1000 м {туман} 10/10 1000 м
[Sc]
+2.9 +2.8 99 -4 -4 1016.0 1007.9
15 20.06 В 8-10
{10}
500 м туман ?/? +2.9 +2.9 100 -4 -4 1015.4 1007.2
18 20.06 В 7-10
{11}
500 м слабый дождь {туман} туман ?/? +3.0 +3.0 100 -3 -3 1013.8 1005.7
21 20.06 ЮВ 10-12
{14}
50 км {дождь, туман} 10/10 300 м
[St]
+3.8 +3.8 100 -3 -3 1012.9 1004.8 +2.6 0.6
00 21.06 ЮВ 13-18
{18}
50 км {дождь, туман} 10/10 600 м
[Cb cap]
+4.9 +4.5 97 -3 -3 1012.0 1004.0
03 21.06 ЮВ 14-17
{18}
10 км слабый ливневой дождь 10/10 600 м
[Cb cap]
+4.6 +4.6 100 -3 -3 1011.9 1003.8
06 21.06 ЮВ 13-16
{17}
500 м слабый ливневой дождь {туман} туман ?/? +3.5 +3.5 100 -5 -5 1012.1 1004.0
09 21.06 В 11-15
{17}
500 м ливневой дождь {туман} туман ?/? +3.5 +3.5 100 -4 -4 1013.1 1005.0 +5.0 3
12 21.06 В 11-13
{15}
500 м слабый ливневой дождь {туман} ?/? +4.2 +4.2 100 -3 -3 1013.9 1005.8
15 21.06 В 10-13
{14}
500 м слабый ливневой дождь {туман} туман ?/? +4.2 +4.2 100 -3 -3 1013.9 1005.8
18 21.06 В 7
{13}
500 м туман {ливн. осадки} ?/? +3.2 +3.2 100 -3 -3 1014.3 1006.2
21 21.06 В 6
{11}
500 м туман ?/? +4.3 +4.3 100 -1 -1 1014.1 1006.0 1
00 22.06 В 4 20 км туман местами 10/10 300 м
[St]
+4.9 +4.9 100 0 0 1013.7 1005.6 +3.2
03 22.06 В 6 20 км туман местами 10/10 300 м
[St]
+7.3 +6.3 93 +3 +3 1012.6 1004.6
06 22.06 В 4 50 км 8/6 300 м
[St Ac trans Ci fib]
+6.4 +5.4 93 +3 +4 1011.1 1003.1
09 22.06 З 2 10 км туман местами 10/10 300 м
[St]
+6.2 +5.9 98 +4 +4 1010.0 1002.0 +7.7
12 22.06 СЗ 3 200 м туман ?/? +4.8 +4.8 100 +1 +1 1009.0 1001.0
15 22.06 С 3 10 км туман местами 6/0
[Ac trans Ci fib]
+4.3 +4.3 100 0 0 1008.1 1000.0
18 22.06 СЗ 3 50 км {туман} 3/0
[Ci fib]
+8.3 +7.5 95 +5 +6 1006.0 998.2
21 22.06 СЗ 2 50 км 3/0
[Ci fib]
+15.8 +9.1 64 +16 +21 1005.3 997.6 +3.8
00 23.06 СЗ 1 50 км 3/3 1000 м
[Sc]
+16.7 +8.3 58 +18 +28 1005.1 997.4
03 23.06 В 4 50 км 8/0
[Ac trans Ci fib]
+15.9 +6.5 54 +15 +22 1005.7 998.1
06 23.06 штиль 0 50 км 3/0
[Ci fib]
+16.0 +5.7 50 +16 +25 1006.1 998.4
09 23.06 СЗ 2 50 км 3/0
[Ci fib]
+12.5 +6.0 65 +12 +13 1006.5 998.7 +18.4
12 23.06 С 4 50 км 3/0
[Ac trans]
+9.1 +5.2 77 +6 +6 1008.0 1000.1
15 23.06 СЗ 4 50 км 4/0
[Ac trans]
+13.4 +5.3 58 +12 +12 1007.5 999.7
18 23.06 СВ 5 50 км 8/3 1000 м
[Sc Ci fib]
+13.7 +3.1 49 +12 +12 1007.3 999.6
21 23.06 С 1 50 км 3/0
[Ci fib]
+16.9 +3.8 42 +18 +23 1007.6 999.9 +8.6
00 24.06 СЗ 1 50 км 3/0
[Ci fib]
+17.4 +4.8 43 +18 +32 опасность
простуды
1008.2 1000.5
03 24.06 ЮВ 2 50 км 3/0
[Ci fib]
+13.7 +4.7 55 +13 +27 опасность
простуды
1008.6 1000.9

 

Местоположение метеостанции Мыс Алевина (Магаданская область, Россия): широта 58.83 долгота 151.30 высота над уровнем моря 65 м.

В архиве по умолчанию представлена погода на Мысе Алевина за последнюю неделю. Архивные данные за месяц целиком и за предыдущие месяцы, начиная с января 2011 года, Вы можете получить, выбрав интересующий диапазон дат из раскрывающегося списка и нажав кнопку "Ввод!".


*Определитесь, кто Вы:
робот инопланетянин человек

Внимание! Время в таблицах - всемирное. Для получения местного времени необходимо прибавить поправку, которая на Мысе Алевина равна 11 ч.

Смотрите также архив погоды в соседних городах и на ближайших метеорологических станциях:

Погода в Оле (Магаданская область, Россия) (81 км)
Погода в Нагаева (Магаданская область, Россия) (84 км)
Погода в Магадане (Магаданская область, Россия) (87 км)
Погода в Армани (Магаданская область, Россия) (115 км)
Погода на Мысе Братьев (Магаданская область, Россия) (119 км)
Погода на Остров Спафарьева (Магаданская область, Россия) (137 км)
Погода в Палатке (Магаданская область, Россия) (143 км)
Погода в Талоне (Магаданская область, Россия) (185 км)
Погода в Брохово (Магаданская область, Россия) (188 км)
Погода в Мадауне (Магаданская область, Россия) (200 км)

Пояснения к столбцам:

Ветер - указаны скорость ветра в м/с - средняя за 10 мин, порывы в срок и между сроками (в фигурных скобках) и направление, откуда дует ветер: С - северный, СВ - северо-восточный, В - восточный, ЮВ - юго-восточный, Ю - южный, ЮЗ - юго-западный, З - западный, СЗ - северо-западный.
Видимость - горизонтальная дальность видимости в метрах или километрах. При видимости от 1 до 10 км при отсутствии осадков обычно наблюдается дымка, при ухудшении видимости до 1 км и менее - туман. В сухую погоду видимость может ухудшаться дымом, пылью или мглою.
Явления - указаны атмосферные явления, наблюдавшиеся в срок или в последний час перед сроком; фигурными скобками обозначены явления, наблюдавшиеся между сроками (за 1-3 часа до срока); квадратными скобками обозначены град или гололедные отложения с указанием их диаметра в мм.
Облачность - указаны через наклонную черту общая и нижняя облачность в баллах и высота нижней границы облаков в метрах; квадратными скобками обозначены формы облаков: Ci - перистые, Cs - перисто-слоистые, Cc - перисто-кучевые, Ac - высококучевые, As - высокослоистые, Sc - слоисто-кучевые, Ns - слоисто-дождевые, Cu - кучевые, Cb - кучево-дождевые. Подробнее классификацию облаков см. в Атласе облаков (PDF).
T - Температура воздуха - температура, измеренная на высоте 2 м над землей.
Td - Температура точки росы - температура, при понижении до которой содержащийся в воздухе водяной пар достигнет насыщения.
f - Относительная влажность воздуха - влажноcть воздуха, измеренная на высоте 2 м над землей.
Te - Эффективная температура - температура, которую ощущает одетый по сезону человек в тени. Характеристика душности погоды. При расчете учитывается влияние влажности воздуха и скорости ветра на теплоощущения человека.
Tes - Эффективная температура на солнце - температура, которую ощущает человек, с поправкой на солнечный нагрев. Характеристика знойности погоды. Зависит от высоты солнца над горизонтом, облачности и скорости ветра. Ночью, в пасмурную погоду, а также при ветре 12 м/с и более поправка равна нулю.
P - Атмосферное давление - приведенное к уровню моря атмосферное давление.
Po - Атмосферное давление - измеренное на уровне метеостанции атмосферное давление.
Tmin - Минимальная температура - минимум температуры воздуха на высоте 2 м над землей.
Tmax - Максимальная температура - максимум температуры воздуха на высоте 2 м над землей.
R - Количество осадков - Количество выпавших осадков за период времени, мм. При наведении курсора мыши на число - период времени, за который выпало указанное количество осадков.
R24 - Количество осадков - Количество выпавших осадков за 24 часа, мм.
S - Снежный покров - Высота снежного покрова, см. При наведении курсора мыши на число - состояние снежного покрова и степень покрытия местности в баллах.